When you browse on this site, cookies collect data to enhance your experience and personalize the content and advertising you see.
Visit our Privacy Policy to learn more. By continuing to use the site, you agree to this use of cookies and data.
  • In Austria
  • List of Countries
  • For 7 days
  • Water Temperature
  • Weather Map
  • News
  • Weather Widgets
  • user-avatar
    Login

    Hourly Weather La Pena

    Today, 23 September, Monday

    Time Temperature Precipitation Wind Pressure Humidity
    00:00 +20°C° 0.8 mm 1 mps 671 mmHg 93%
    01:00 +20°C° 0 mm 1 mps 671 mmHg 93%
    02:00 +19°C° 1.3 mm 1 mps 670 mmHg 93%
    03:00 +19°C° 1.3 mm 1 mps 670 mmHg 93%
    04:00 +19°C° 1.3 mm 1 mps 670 mmHg 93%
    05:00 +20°C° 0.4 mm 1 mps 671 mmHg 92%
    06:00 +20°C° 0.4 mm 1 mps 671 mmHg 90%
    07:00 +21°C° 0 mm 1 mps 672 mmHg 88%
    08:00 +23°C° 0.1 mm 1 mps 672 mmHg 81%
    09:00 +25°C° 0.1 mm 1 mps 673 mmHg 74%
    10:00 +27°C° 0.1 mm 1 mps 673 mmHg 68%
    11:00 +27°C° 0.3 mm 1 mps 672 mmHg 66%
    12:00 +28°C° 0.3 mm 1 mps 671 mmHg 64%
    13:00 +29°C° 0.3 mm 2 mps 670 mmHg 63%
    14:00 +29°C° 0.7 mm 1 mps 670 mmHg 64%
    15:00 +28°C° 0.7 mm 1 mps 669 mmHg 65%
    16:00 +28°C° 0.7 mm 1 mps 669 mmHg 66%
    17:00 +26°C° 0.9 mm 1 mps 669 mmHg 73%
    18:00 +25°C° 0.9 mm 1 mps 669 mmHg 79%
    19:00 +23°C° 0.9 mm 1 mps 669 mmHg 86%
    20:00 +22°C° 0.8 mm 1 mps 670 mmHg 87%
    21:00 +22°C° 0.8 mm 1 mps 670 mmHg 88%
    22:00 +22°C° 0.8 mm 1 mps 671 mmHg 89%
    23:00 +22°C° 0.2 mm 1 mps 671 mmHg 89%

    Tomorrow, 24 September, Tuesday

    Time Temperature Precipitation Wind Pressure Humidity
    00:00 +21°C° 0.2 mm 1 mps 670 mmHg 89%
    01:00 +21°C° 0.2 mm 1 mps 670 mmHg 89%
    02:00 +21°C° 0.2 mm 1 mps 670 mmHg 89%
    03:00 +20°C° 0.2 mm 1 mps 670 mmHg 90%
    04:00 +20°C° 0.2 mm 1 mps 670 mmHg 90%
    05:00 +20°C° 0.1 mm 1 mps 670 mmHg 89%
    06:00 +19°C° 0.1 mm 0 mps 671 mmHg 88%
    07:00 +19°C° 0.1 mm 0 mps 671 mmHg 86%
    08:00 +23°C° 0.2 mm 1 mps 672 mmHg 81%
    09:00 +25°C° 0.2 mm 1 mps 672 mmHg 76%
    10:00 +27°C° 0.2 mm 1 mps 673 mmHg 70%
    11:00 +27°C° 0.7 mm 1 mps 672 mmHg 72%
    12:00 +27°C° 0.7 mm 1 mps 671 mmHg 74%
    13:00 +27°C° 0.7 mm 1 mps 670 mmHg 76%
    14:00 +25°C° 0.6 mm 0 mps 670 mmHg 76%
    15:00 +24°C° 0.6 mm 0 mps 670 mmHg 77%
    16:00 +24°C° 0.6 mm 0 mps 669 mmHg 77%
    17:00 +23°C° 0.3 mm 0 mps 670 mmHg 81%
    18:00 +22°C° 0.3 mm 0 mps 670 mmHg 85%
    19:00 +23°C° 0.3 mm 1 mps 670 mmHg 89%
    20:00 +22°C° 0.2 mm 1 mps 670 mmHg 89%
    21:00 +22°C° 0.2 mm 1 mps 671 mmHg 88%
    22:00 +22°C° 0.2 mm 1 mps 671 mmHg 87%
    23:00 +22°C° 0.5 mm 1 mps 671 mmHg 88%

    Day after tomorrow, 25 September, Wednesday

    Time Temperature Precipitation Wind Pressure Humidity
    00:00 +21°C° 0.5 mm 1 mps 671 mmHg 88%
    01:00 +21°C° 0.5 mm 1 mps 670 mmHg 88%
    02:00 +21°C° 0.6 mm 1 mps 670 mmHg 88%
    03:00 +19°C° 0.6 mm 0 mps 670 mmHg 88%
    04:00 +19°C° 0.6 mm 0 mps 670 mmHg 88%
    05:00 +19°C° 0.6 mm 0 mps 671 mmHg 89%
    06:00 +19°C° 0.6 mm 0 mps 671 mmHg 89%
    07:00 +19°C° 0.6 mm 0 mps 672 mmHg 90%
    08:00 +20°C° 0.4 mm 0 mps 672 mmHg 88%
    09:00 +21°C° 0.4 mm 0 mps 672 mmHg 86%
    10:00 +22°C° 0.4 mm 0 mps 672 mmHg 84%
    11:00 +23°C° 0.4 mm 0 mps 672 mmHg 77%
    12:00 +25°C° 0.4 mm 0 mps 671 mmHg 69%
    13:00 +29°C° 0.4 mm 1 mps 670 mmHg 62%
    14:00 +28°C° 0.2 mm 1 mps 670 mmHg 63%
    15:00 +28°C° 0.2 mm 1 mps 670 mmHg 63%
    16:00 +28°C° 0.2 mm 1 mps 669 mmHg 64%
    17:00 +26°C° 1.1 mm 1 mps 669 mmHg 74%
    18:00 +24°C° 1.1 mm 1 mps 669 mmHg 83%
    19:00 +23°C° 1.1 mm 1 mps 669 mmHg 92%
    20:00 +22°C° 1.4 mm 1 mps 670 mmHg 93%
    21:00 +20°C° 1.4 mm 0 mps 670 mmHg 94%
    22:00 +19°C° 1.4 mm 0 mps 671 mmHg 95%
    23:00 +19°C° 0.4 mm 0 mps 671 mmHg 95%

    26 September, Thursday

    Time Temperature Precipitation Wind Pressure Humidity
    00:00 +21°C° 0.4 mm 1 mps 670 mmHg 94%
    01:00 +20°C° 0.4 mm 1 mps 670 mmHg 94%
    02:00 +20°C° 0.1 mm 1 mps 670 mmHg 94%
    03:00 +20°C° 0.1 mm 1 mps 670 mmHg 93%
    04:00 +20°C° 0.1 mm 1 mps 670 mmHg 93%
    05:00 +20°C° 0.1 mm 1 mps 670 mmHg 92%
    06:00 +21°C° 0.1 mm 1 mps 671 mmHg 90%
    07:00 +21°C° 0.1 mm 1 mps 671 mmHg 89%
    08:00 +23°C° 0.1 mm 1 mps 671 mmHg 82%
    09:00 +25°C° 0.1 mm 1 mps 672 mmHg 75%
    10:00 +26°C° 0.1 mm 1 mps 672 mmHg 69%
    11:00 +27°C° 0.7 mm 1 mps 671 mmHg 71%
    12:00 +27°C° 0.7 mm 1 mps 671 mmHg 73%
    13:00 +27°C° 0.7 mm 1 mps 670 mmHg 75%
    14:00 +27°C° 1.1 mm 1 mps 670 mmHg 75%
    15:00 +27°C° 1.1 mm 1 mps 669 mmHg 75%
    16:00 +25°C° 1.1 mm 0 mps 669 mmHg 75%
    17:00 +25°C° 0.8 mm 1 mps 669 mmHg 80%
    18:00 +24°C° 0.8 mm 1 mps 669 mmHg 85%
    19:00 +22°C° 0.8 mm 1 mps 669 mmHg 89%
    20:00 +22°C° 0.6 mm 1 mps 670 mmHg 90%
    21:00 +21°C° 0.6 mm 1 mps 670 mmHg 90%
    22:00 +21°C° 0.6 mm 1 mps 671 mmHg 90%
    23:00 +21°C° 0.5 mm 1 mps 670 mmHg 91%

    27 September, Friday

    Time Temperature Precipitation Wind Pressure Humidity
    00:00 +20°C° 0.5 mm 1 mps 670 mmHg 92%
    01:00 +20°C° 0.5 mm 1 mps 670 mmHg 93%
    02:00 +20°C° 0.1 mm 1 mps 670 mmHg 92%
    03:00 +20°C° 0.1 mm 1 mps 670 mmHg 92%
    04:00 +19°C° 0.1 mm 1 mps 669 mmHg 92%
    05:00 +20°C° 0 mm 1 mps 670 mmHg 90%
    06:00 +18°C° 0 mm 0 mps 671 mmHg 89%
    07:00 +19°C° 0 mm 0 mps 671 mmHg 88%
    08:00 +23°C° 0.1 mm 1 mps 672 mmHg 81%
    09:00 +25°C° 0.1 mm 1 mps 672 mmHg 75%
    10:00 +27°C° 0.1 mm 1 mps 672 mmHg 69%
    11:00 +27°C° 1.2 mm 1 mps 672 mmHg 72%
    12:00 +27°C° 1.2 mm 1 mps 671 mmHg 75%
    13:00 +27°C° 1.2 mm 1 mps 670 mmHg 77%
    14:00 +26°C° 1.5 mm 1 mps 669 mmHg 80%
    15:00 +26°C° 1.5 mm 1 mps 669 mmHg 82%
    16:00 +24°C° 1.5 mm 0 mps 668 mmHg 85%
    17:00 +24°C° 1.1 mm 1 mps 669 mmHg 88%
    18:00 +23°C° 1.1 mm 1 mps 669 mmHg 90%
    19:00 +22°C° 1.1 mm 1 mps 669 mmHg 93%
    20:00 +21°C° 1.4 mm 1 mps 669 mmHg 93%
    21:00 +21°C° 1.4 mm 1 mps 670 mmHg 94%
    22:00 +20°C° 1.4 mm 1 mps 670 mmHg 94%
    23:00 +20°C° 0.5 mm 1 mps 670 mmHg 94%

    28 September, Saturday

    Time Temperature Precipitation Wind Pressure Humidity
    00:00 +20°C° 0.5 mm 1 mps 670 mmHg 94%
    01:00 +19°C° 0.5 mm 1 mps 670 mmHg 94%
    02:00 +19°C° 0.2 mm 1 mps 669 mmHg 93%
    03:00 +19°C° 0.2 mm 1 mps 669 mmHg 93%
    04:00 +19°C° 0.2 mm 1 mps 669 mmHg 92%
    05:00 +20°C° 0.1 mm 1 mps 669 mmHg 90%
    06:00 +21°C° 0.1 mm 1 mps 670 mmHg 88%
    07:00 +19°C° 0.1 mm 0 mps 671 mmHg 87%
    08:00 +23°C° 0.3 mm 1 mps 671 mmHg 81%
    09:00 +25°C° 0.3 mm 1 mps 671 mmHg 75%
    10:00 +27°C° 0.3 mm 1 mps 672 mmHg 70%
    11:00 +27°C° 0.7 mm 1 mps 671 mmHg 71%
    12:00 +28°C° 0.7 mm 1 mps 670 mmHg 71%
    13:00 +28°C° 0.7 mm 1 mps 669 mmHg 72%
    14:00 +27°C° 0.8 mm 1 mps 669 mmHg 75%
    15:00 +27°C° 0.8 mm 1 mps 668 mmHg 78%
    16:00 +24°C° 0.8 mm 0 mps 668 mmHg 81%
    17:00 +23°C° 2 mm 0 mps 668 mmHg 85%
    18:00 +22°C° 2 mm 0 mps 668 mmHg 89%
    19:00 +20°C° 2 mm 0 mps 668 mmHg 93%
    20:00 +20°C° 1.2 mm 0 mps 669 mmHg 93%
    21:00 +22°C° 1.2 mm 1 mps 669 mmHg 94%
    22:00 +21°C° 1.2 mm 1 mps 670 mmHg 94%
    23:00 +21°C° 1.1 mm 1 mps 669 mmHg 94%
    Show more